Regional Weather Roundup
Issued by NWS Sterling, VA

Home | Current Version | Previous Version | Text Only | Print | Product List | Glossary On
Versions: 1 2 3 4 5 6 7 8 9 10 11 12 13 14 15 16 17 18 19 20 21 22 23 24 25 26 27 28
000
ASUS41 KLWX 240211
RWRLWX

REGIONAL WEATHER ROUNDUP
NATIONAL WEATHER SERVICE BALTIMORE MD/WASHINGTON DC
1000 PM EDT MON OCT 23 2017

Note: "FAIR" indicates few or no clouds below 12,000 feet
with no significant weather and/or obstructions to visibility.
 TC=TEMPERATURE CELSIUS

 * =Non NWS site. Station does not report precipitation (e.g. rain,
    snow, etc.), thunder, or fog.

DCZ001-MDZ009-015-VAZ040>042-051-053>054-240300-
WASHINGTON METRO

CITY           SKY/WX    TMP DP  RH WIND       PRES   REMARKS
WASHINGTON NAT CLOUDY    73  66  78 SE15G22   29.86F
DULLES         CLOUDY    71  66  84 SE13G24   29.83F
ANDREWS AFB    CLOUDY    71  65  82 SE14      29.86F
FT BELVOIR     CLOUDY    72  64  78 SE9G21    29.83F
QUANTICO       LGT RAIN  72  67  84 SE18      29.83F
COLLEGE PARK*  CLOUDY    71  65  81 SE8G17    29.86F
LEESBURG*      CLOUDY    72  68  88 S16G24    29.84F
MANASSAS*      CLOUDY    71  66  84 SE15      29.82F
GAITHERSBURG*  CLOUDY    70  64  81 SE15G23   29.86F

$$

MDZ006>007-011-014-240300-
BALTIMORE METRO

CITY           SKY/WX    TMP DP  RH WIND       PRES   REMARKS
BWI AIRPORT    CLOUDY    71  65  81 SE14G21   29.88F
MD SCIENCE CTR   N/A     72  66  81 MISG      29.89F
MARTIN STATE   CLOUDY    72  68  88 E14       29.92F
ANNAPOLIS      CLOUDY    72  68  87 SE20G29   29.89F
FORT MEADE*    CLOUDY    70  63  78 SE12      29.91F

$$

MDZ012-015-019>023-240300-
MARYLAND EASTERN SHORE

CITY           SKY/WX    TMP DP  RH WIND       PRES   REMARKS
OCEAN CITY     CLOUDY    70  67  90 SE8       29.97F
SALISBURY      CLOUDY    71  67  87 SE14      29.93F
CAMBRIDGE*     CLEAR     72  64  78 SE15G28   29.90F
EASTON*        MOCLDY    72  64  78 SE14      29.94F

$$

MDZ017>025-240300-
SOUTHERN MARYLAND

CITY           SKY/WX    TMP DP  RH WIND       PRES   REMARKS
PATUXENT RIVER CLOUDY    71  66  84 SE15G23   29.87F
ST INIGOES     CLOUDY    73  66  78 SE15G26   29.86F
LEONARDTOWN*   NOT AVBL

$$

MDZ003>005-240300-
NORTH CENTRAL MARYLAND

CITY           SKY/WX    TMP DP  RH WIND       PRES   REMARKS
FREDERICK*     CLOUDY    72  61  68 SE7G22    29.86F
HAGERSTOWN APT CLOUDY    71  64  78 SE16G24   29.80F
WESTMINSTER*   CLOUDY    70  64  83 SE13G24   29.88F

$$

MDZ501>502-240300-
WESTERN MARYLAND

CITY           SKY/WX    TMP DP  RH WIND       PRES   REMARKS
OAKLAND*       CLOUDY    55  55 100 SE16G22   29.73F
CUMBERLAND*    CLOUDY    66  63  88 SE7G16    29.79F

$$

VAZ025>031-240300-
SHENANDOAH VALLEY

CITY           SKY/WX    TMP DP  RH WIND       PRES   REMARKS
WINCHESTER*    DRIZZLE   64  63  94 SE13      29.78F
FRONT ROYAL*   CLOUDY    68  63  83 S7G17     29.77F
LURAY*         DRIZZLE   64  63  94 NW3       29.77F
NEW MARKET*    CLOUDY    66  63  90 S8        29.77F
STAUNTON*      HVY RAIN  63  62  95 SW15      29.82R
WAYNESBORO*    CLOUDY    63  62  99 S9G16     29.82R

$$

WVZ021-048>050-054>055-240300-
EASTERN WEST VIRGINIA PANHANDLE

CITY           SKY/WX    TMP DP  RH WIND       PRES   REMARKS
MARTINSBURG    LGT RAIN  70  62  76 SE10G22   29.78F
PETERSBURG*    HVY RAIN  61  61  99 CALM      29.74F

$$

VAZ036>039-050-240300-
CENTRAL FOOTHILLS

CITY           SKY/WX    TMP DP  RH WIND       PRES   REMARKS
CHARLOTTESVILL HVY RAIN  68  65  90 SE12G21   29.78F FOG
CULPEPER*      LGT RAIN  71  64  78 SE6       29.81F
ORANGE*        RAIN      68  63  83 SE5       29.80F
GORDONSVILLE*  CLOUDY    69  66  91 S6        29.81R
WARRENTON*     CLOUDY    73  63  71 SE13      29.80F

$$

VAZ055>057-240300-
NORTH AND CENTRAL PIEDMONT

CITY           SKY/WX    TMP DP  RH WIND       PRES   REMARKS
FREDERICKSBRG* LGT RAIN  71  67  87 SE12      29.81F
STAFFORD*      RAIN      69  68  96 SE9       29.87F

$$

NCZ024-NYZ072-PAZ021-071-VAZ022-071-240300-
OTHER REGIONAL OBSERVATIONS

CITY           SKY/WX    TMP DP  RH WIND       PRES   REMARKS
PHILADELPHIA   CLOUDY    70  65  84 SE10      29.98F
PITTSBURGH     LGT RAIN  56  55  97 SE14      29.71F
ROANOKE        CLEAR     58  56  93 E3        29.83R
RICHMOND       CLOUDY    73  65  75 S21G29    29.83S
RALEIGH        TSTM      70  70 100 SW9G22    29.81R FOG

$$

ANZ530>537-240300-
MARINE OBSERVATIONS

STATION/POSITION TIME  TEMP    WIND        PRES
                       AIR SEA DIR/SP/G
                 (UTC) (F)     (DEG/KT/KT) (MB)
THOMAS PT LIGHT  0200   72 68  150/ 25/ 27   N/A
BALT KEY BRIDGE  0148   70                 1011.8F
COVE POINT       0148   71                 1012.3F
LEWISETTA        0148   73 68              1011.0F
SOLOMONS ISLAND  0148                      1011.2F

$$





USA.gov is the U.S. government's official web portal to all federal, state and local government web resources and services.